Location: Newark
(12.4436°N, 0.6167°W)
Time: 19:43:29
(UTC+00:00)

Vanguard 1 - Pass Details

Date: 16 December 2019
Orbit: 651 x 3833 km, 34.2° (Epoch: 25 January)

Event Time Altitude Azimuth Distance (km) Brightness Sun altitude
Rises 12:29:31 0° 281° (W) 5,544 13.9 53.4°
Reaches altitude 10° 12:35:52 10° 260° (W) 3,789 13.4 53.1°
Maximum altitude 12:40:17 14° 231° (SW) 2,942 13.2 52.8°
Drops below altitude 10° 12:43:49 10° 200° (SSW) 2,855 13.3 52.5°
Sets 12:47:26 0° 174° (S) 3,428 13.4 52.2°
